[[{"header":{"parameterUnit":"m.s-1","parameterCategory":1,"la1":30.2991,"la2":30.254,"lo1":-89.0895,"lo2":-89.0444,"dy":0.0017,"dx":0.0017,"nx":28,"ny":28,"refTime":"2025-03-26T09:00:00:Z","depth":0,"parameterNumber":2,"parameterNumberName":"U-component_of_WINDS"},"data":[0,0,0,0,0,0,0,0,0,0,0,0,0,0,0,0,0,0,0,0,0,0,0,0,0,0,0,0,0,0,0,0,0,0,0,0,0,0,0,0,0,0,0,0,0,0,0,0,0,0,0,0,0,0,0,0,0,0,-4.7771,-4.7772,0,-4.7859,-4.786,-4.7861,-4.7821,-4.7819,-4.7817,-4.7815,-4.7902,-4.7906,-4.791,0,0,0,0,0,0,0,0,0,0,0,0,0,-4.7565,-4.7569,-4.7771,-4.7772,-4.7773,-4.7859,-4.786,-4.7861,-4.7822,-4.7819,-4.7817,-4.7814,-4.79,-4.7906,-4.7911,0,0,0,0,0,0,0,0,0,0,0,0,0,-4.7654,-4.7571,-4.777,-4.7764,-4.7764,-4.7859,-4.786,-4.7862,-4.7822,-4.7819,-4.7816,-4.7813,-4.7899,-4.7905,-4.7911,-4.8017,0,0,-4.7931,-4.7934,0,0,0,0,0,0,0,0,-4.7649,-4.7662,-4.7764,-4.7764,-4.7765,-4.7826,-4.7819,-4.7913,-4.7823,-4.78,-4.7815,-4.7811,-4.7879,-4.7887,-4.7911,-4.8021,-4.8025,-4.7932,-4.7936,-4.7939,-4.7941,0,0,0,0,0,0,0,-4.7643,-4.7658,-4.7805,-4.7765,-4.7766,-4.7755,-4.7764,-4.7837,-4.7857,-4.7802,-4.7799,-4.781,-4.7879,-4.7904,-4.7912,-4.8026,-4.7932,-4.7938,-4.7942,-4.7944,-4.8227,-4.823,0,0,0,0,0,0,-4.7637,-4.7653,-4.7803,-4.7808,-4.7698,-4.7762,-4.7772,-4.781,-4.7856,-4.786,-4.7813,-4.7808,-4.7895,-4.7905,-4.7915,-4.804,-4.7939,-4.7945,-4.7948,-4.8223,-4.8228,-4.8231,0,0,0,0,0,0,-4.7633,-4.7651,-4.7799,-4.773,-4.7748,-4.7769,-4.7811,-4.7813,-4.7839,-4.7864,-4.7867,-4.7836,-4.7893,-4.7906,-4.7992,-4.8043,-4.7948,-4.7954,-4.8219,-4.8224,-4.8229,-4.8293,0,0,0,0,0,0,-4.7627,-4.765,-4.769,-4.7731,-4.7752,-4.7875,-4.7815,-4.7817,-4.785,-4.7845,-4.7886,-4.789,-4.7891,-4.7983,-4.7998,-4.805,-4.7959,-4.8214,-4.8221,-4.8228,-4.8286,-4.8299,-4.8311,0,0,0,0,0,-4.762,-4.7704,-4.7693,-4.7711,-4.7803,-4.7878,-4.789,-4.789,-4.7855,-4.7895,-4.7912,-4.7889,-4.8036,-4.7992,-4.8009,-4.8064,-4.8211,-4.8219,-4.8227,-4.828,-4.8297,-4.8311,0,0,0,0,0,0,-4.7667,-4.7709,-4.7697,-4.7797,-4.7835,-4.7871,-4.7922,-4.7908,-4.7955,-4.7948,-4.7946,-4.7956,-4.8044,-4.8063,-4.8013,-4.8168,-4.8118,-4.813,-4.8152,-4.8168,-4.818,-4.8172,-4.7964,0,0,0,0,0,-4.769,-4.7748,-4.7781,-4.7866,-4.7886,-4.7901,-4.7934,-4.7931,-4.797,-4.7985,-4.8008,-4.8045,-4.81,-4.8135,-4.8187,-4.829,-4.8297,-4.8336,-4.8349,-4.8359,-4.8368,-4.8423,-4.844,-4.8258,-4.8258,-4.8258,0,0,-4.7735,-4.7766,-4.7802,-4.7876,-4.7905,-4.7964,-4.7915,-4.798,-4.8023,-4.7994,-4.8077,-4.8096,-4.8137,-4.8232,-4.8274,-4.825,-4.8421,-4.8369,-4.8377,-4.8381,-4.8433,-4.845,-4.8466,-4.8264,-4.8263,-4.8262,0,0,-4.7848,-4.7878,-4.7952,-4.7982,-4.8027,-4.8038,-4.8055,-4.8096,-4.8107,-4.819,-4.817,-4.8222,-4.8316,-4.8346,-4.8374,-4.8501,-4.8481,-4.8518,-4.8582,-4.8636,-4.865,-4.8663,-4.8706,-4.8722,-4.8528,-4.8529,-4.8529,0,-4.7899,-4.7989,-4.7991,-4.8058,-4.8091,-4.807,-4.8143,-4.8173,-4.8232,-4.8254,-4.8227,-4.8345,-4.8371,-4.8472,-4.8504,-4.8528,-4.8547,-4.8512,-4.8648,-4.8661,-4.8673,-4.8714,-4.8731,-4.8533,-4.8532,-4.8532,-4.8531,0,-4.8048,-4.8111,-4.8165,-4.8224,-4.8263,-4.8333,-4.8345,-4.8384,-4.8379,-4.8392,-4.8477,-4.8509,-4.8566,-4.8591,-4.8586,-4.8692,-4.8675,-4.8648,-4.8597,-4.8694,-4.8733,-4.8749,-4.8538,-4.8537,-4.8536,-4.8535,0,0,-4.819,-4.8252,-4.8271,-4.8297,-4.8347,-4.8395,-4.8464,-4.8522,-4.8555,-4.8598,-4.8654,-4.8736,-4.8712,-4.8743,-4.8742,-4.879,-4.8887,-4.8757,-4.8758,-4.8778,-4.9003,-4.9021,-4.9039,-4.8875,-4.8878,-4.8881,-4.8999,0,-4.8306,-4.8428,-4.8432,-4.8543,-4.8601,-4.8583,-4.8643,-4.8679,-4.8694,-4.8744,-4.876,-4.8817,-4.8782,-4.8801,-4.8848,-4.8865,-4.8931,-4.8857,-4.8926,-4.8929,-4.8913,-4.906,-4.9079,-4.9188,-4.9014,-4.9017,-4.9019,0,-4.8455,-4.8504,-4.8621,-4.8663,-4.8687,-4.8741,-4.8794,-4.8843,-4.8884,-4.8892,-4.8928,-4.892,-4.899,-4.894,-4.9036,-4.8985,-4.9014,-4.9027,-4.9031,-4.9035,-4.8977,-4.9065,-4.9224,-4.9239,-4.9043,-4.9041,-4.904,0,-4.8545,-4.8639,-4.8722,-4.8745,-4.8796,-4.8835,-4.8858,-4.8896,-4.893,-4.8977,-4.8999,-4.9053,-4.9082,-4.9124,-4.9131,-4.9094,-4.9227,-4.9177,-4.9233,-4.9233,-4.9259,-4.9256,-4.9421,-4.9283,-4.9282,-4.9282,-4.9282,0,-4.8671,-4.8743,-4.8762,-4.8812,-4.8892,-4.8898,-4.8976,-4.8996,-4.9031,-4.9084,-4.9072,-4.9122,-4.9129,-4.9181,-4.9187,-4.9265,-4.9278,-4.9285,-4.9285,-4.9284,-4.9283,-4.9301,-4.9292,-4.9286,-4.9285,-4.9285,-4.9284,0,-4.8783,-4.8799,-4.8887,-4.8929,-4.8942,-4.8998,-4.9034,-4.9081,-4.9096,-4.9163,-4.9179,-4.9202,-4.9262,-4.9274,-4.9345,-4.9349,-4.9441,-4.9435,-4.9427,-4.9425,-4.948,-4.9474,-4.9659,-4.9683,-4.9532,-4.9533,-4.9534,0,-4.8861,-4.8916,-4.8964,-4.9,-4.9025,-4.9082,-4.9118,-4.9126,-4.9163,-4.9215,-4.9256,-4.9316,-4.9363,-4.946,-4.9482,-4.9536,-4.953,-4.9591,-4.9537,-4.9535,-4.9528,-4.9523,-4.9528,-4.96,-4.9602,-4.9603,-4.9604,0,-4.8997,-4.9003,-4.9055,-4.9111,-4.9155,-4.9199,-4.924,-4.927,-4.9283,-4.9326,-4.9388,-4.9425,-4.9499,-4.9557,-4.9612,-4.9634,-4.9621,-4.9622,-4.9637,-4.9635,-4.9628,-4.963,-4.9452,-4.9617,-4.9615,-4.9615,-4.9614,-4.9613,-4.9093,-4.914,-4.9182,-4.9241,-4.9274,-4.9314,-4.9361,-4.9382,-4.9434,-4.9495,-4.9497,-4.9565,-4.9605,-4.9677,-4.9704,-4.9756,-4.9736,-4.9759,-4.9764,-4.9769,-4.9773,-4.9623,-4.9766,-4.9766,-4.9765,-4.9765,-4.9765,0,-4.9226,-4.9253,-4.9307,-4.9367,-4.9413,-4.94,-4.9446,-4.9485,-4.9545,-4.9584,-4.9632,-4.9703,-4.9761,-4.9788,-4.9845,-4.9881,-4.9876,-4.9895,-4.9891,-4.9896,-4.9788,-4.9768,-4.9898,-4.9898,-4.9898,-4.9898,-4.9898,-4.9898,-4.9301,-4.9381,-4.9392,-4.9488,-4.9514,-4.9581,-4.9608,-4.9645,-4.9676,-4.9757,-4.9805,-4.9823,-4.9857,-4.9917,-4.9968,-4.9975,-4.9995,-5.0016,-5.0019,-4.9918,-4.9904,-4.9891,-4.9872,-5.0021,-5.0021,-5.0122,-5.0123,-5.0124]},{"header":{"parameterUnit":"m.s-1","parameterCategory":1,"la1":30.2991,"la2":30.254,"lo1":-89.0895,"lo2":-89.0444,"dy":0.0017,"dx":0.0017,"nx":28,"ny":28,"refTime":"2025-03-26T09:00:00:Z","depth":0,"parameterNumber":3,"parameterNumberName":"V-component_of_WINDS"},"data":[0,0,0,0,0,0,0,0,0,0,0,0,0,0,0,0,0,0,0,0,0,0,0,0,0,0,0,0,0,0,0,0,0,0,0,0,0,0,0,0,0,0,0,0,0,0,0,0,0,0,0,0,0,0,0,0,0,0,2.7735,2.7735,0,2.7807,2.7807,2.7808,2.7796,2.7795,2.7793,2.7792,2.7863,2.7865,2.7868,0,0,0,0,0,0,0,0,0,0,0,0,0,2.7585,2.7588,2.7734,2.7735,2.7736,2.7806,2.7807,2.7808,2.7796,2.7795,2.7793,2.7792,2.7862,2.7865,2.7869,0,0,0,0,0,0,0,0,0,0,0,0,0,2.7653,2.7589,2.7734,2.7739,2.774,2.7806,2.7807,2.7809,2.7797,2.7795,2.7793,2.7791,2.786,2.7865,2.7869,2.7935,0,0,2.7883,2.7885,0,0,0,0,0,0,0,0,2.7649,2.7658,2.7737,2.7739,2.774,2.779,2.778,2.7851,2.7797,2.7775,2.7792,2.779,2.784,2.7846,2.7863,2.7938,2.7941,2.7884,2.7886,2.7888,2.789,0,0,0,0,0,0,0,2.7644,2.7655,2.7763,2.7738,2.774,2.7737,2.7744,2.7794,2.7817,2.7777,2.7776,2.7785,2.784,2.7859,2.7865,2.7942,2.7883,2.7887,2.789,2.7892,2.8076,2.8078,0,0,0,0,0,0,2.7638,2.7651,2.7761,2.7765,2.7689,2.7741,2.7749,2.7776,2.7816,2.7821,2.7786,2.7784,2.7852,2.786,2.7867,2.7948,2.7888,2.7892,2.7895,2.8074,2.8077,2.8079,0,0,0,0,0,0,2.7635,2.7648,2.7758,2.7708,2.7722,2.7745,2.7776,2.7778,2.7797,2.7824,2.7827,2.7802,2.7851,2.7861,2.7919,2.7951,2.7894,2.7899,2.8071,2.8075,2.8078,2.811,0,0,0,0,0,0,2.7631,2.7647,2.7673,2.7709,2.7724,2.7808,2.7777,2.7781,2.7806,2.7803,2.7839,2.7843,2.785,2.7912,2.7923,2.7956,2.7902,2.8069,2.8073,2.8077,2.8106,2.8114,2.812,0,0,0,0,0,2.7626,2.7677,2.7674,2.7687,2.7757,2.781,2.7819,2.7828,2.7808,2.7834,2.7851,2.7842,2.7945,2.7918,2.7931,2.7965,2.8067,2.8072,2.8077,2.8103,2.8112,2.812,0,0,0,0,0,0,2.7642,2.7682,2.7679,2.7744,2.7774,2.7808,2.7841,2.7837,2.7872,2.7868,2.7876,2.7885,2.7944,2.796,2.7929,2.8032,2.8003,2.8011,2.8019,2.8028,2.8035,2.803,2.7906,0,0,0,0,0,2.7654,2.7695,2.7727,2.7781,2.7797,2.7816,2.784,2.7844,2.7875,2.7888,2.7909,2.7939,2.7978,2.8004,2.8041,2.8108,2.8117,2.8138,2.8145,2.8151,2.8158,2.8196,2.8207,2.8095,2.8095,2.8095,0,0,2.7677,2.7704,2.7729,2.7785,2.7809,2.7852,2.7827,2.7872,2.7904,2.7894,2.7951,2.7968,2.8002,2.8065,2.8094,2.808,2.8191,2.8157,2.8162,2.8165,2.8203,2.8213,2.8222,2.8098,2.8098,2.8097,0,0,2.7743,2.7766,2.7816,2.7841,2.7878,2.7891,2.7903,2.7939,2.795,2.8008,2.8002,2.8039,2.8107,2.8132,2.8153,2.8231,2.8224,2.8243,2.828,2.8318,2.8327,2.8335,2.8364,2.8374,2.8249,2.8249,2.8249,0,2.7767,2.7831,2.7841,2.7888,2.7913,2.7909,2.7959,2.7982,2.8029,2.8047,2.8031,2.8118,2.814,2.821,2.8229,2.8246,2.8261,2.8239,2.8325,2.8333,2.834,2.8368,2.8379,2.8251,2.8251,2.8251,2.8251,0,2.786,2.7905,2.794,2.7988,2.8018,2.8065,2.8082,2.8111,2.8113,2.8128,2.8187,2.8214,2.8258,2.8275,2.8276,2.8346,2.8337,2.8323,2.8295,2.8353,2.838,2.839,2.8255,2.8254,2.8253,2.8253,0,0,2.7937,2.7992,2.8004,2.8027,2.8069,2.8104,2.8152,2.8197,2.8222,2.8255,2.8296,2.8355,2.8343,2.8368,2.8372,2.8405,2.8467,2.8388,2.8389,2.8403,2.8547,2.8558,2.8571,2.8463,2.8465,2.8467,2.8545,0,2.8007,2.8094,2.8105,2.8182,2.8224,2.8222,2.8264,2.8294,2.831,2.8348,2.8364,2.8406,2.8387,2.8402,2.8434,2.8453,2.8496,2.8447,2.8502,2.8503,2.8494,2.8584,2.8595,2.8668,2.8555,2.8557,2.8558,0,2.81,2.8139,2.822,2.8259,2.8277,2.8315,2.8359,2.8395,2.8429,2.8438,2.8468,2.8469,2.8519,2.8489,2.8558,2.8525,2.8547,2.856,2.8563,2.8569,2.8535,2.8593,2.8691,2.8703,2.8574,2.8573,2.8572,0,2.815,2.8222,2.8281,2.83,2.8346,2.8373,2.8393,2.8427,2.8454,2.8491,2.8509,2.8551,2.8574,2.8607,2.8619,2.8596,2.8689,2.8659,2.8698,2.8698,2.8718,2.8717,2.8822,2.8731,2.8731,2.8731,2.8731,0,2.8228,2.8278,2.8304,2.834,2.8397,2.841,2.8465,2.8484,2.8514,2.8554,2.8554,2.8591,2.8605,2.8644,2.8654,2.8712,2.8721,2.873,2.8733,2.8731,2.873,2.8747,2.8742,2.8734,2.8733,2.8733,2.8732,0,2.8293,2.8312,2.8376,2.8416,2.8427,2.8467,2.8501,2.8536,2.8552,2.8603,2.8615,2.864,2.8687,2.8702,2.8758,2.8765,2.8832,2.8829,2.8821,2.8822,2.886,2.8857,2.8981,2.8998,2.8895,2.8896,2.8897,0,2.8341,2.8381,2.8425,2.8453,2.8475,2.8519,2.8548,2.8561,2.8591,2.8635,2.8665,2.8712,2.8751,2.8826,2.8848,2.8891,2.889,2.8931,2.8897,2.8895,2.8893,2.8891,2.8895,2.8937,2.8938,2.8939,2.894,0,2.8427,2.8435,2.8477,2.8523,2.8557,2.8594,2.8628,2.8651,2.867,2.8703,2.8753,2.8783,2.8841,2.8888,2.8933,2.8953,2.895,2.8951,2.8962,2.8961,2.8956,2.8961,2.884,2.8948,2.8947,2.8946,2.8946,2.8945,2.8486,2.8522,2.856,2.8607,2.8635,2.8669,2.8705,2.8726,2.8768,2.8818,2.8823,2.8877,2.8912,2.8972,2.8995,2.9036,2.9025,2.9041,2.9046,2.905,2.9054,2.8949,2.9044,2.9044,2.9044,2.9044,2.9044,0,2.8573,2.8598,2.8641,2.8692,2.8729,2.8724,2.8764,2.8795,2.8842,2.8876,2.8915,2.8972,2.9018,2.9045,2.9092,2.912,2.912,2.9132,2.913,2.9135,2.906,2.9047,2.9131,2.9131,2.9131,2.9131,2.9131,2.9131,2.8623,2.8684,2.8697,2.8772,2.8796,2.885,2.8873,2.8904,2.8932,2.8996,2.9035,2.9053,2.9085,2.9134,2.9176,2.9183,2.92,2.9214,2.9219,2.9149,2.914,2.9132,2.9119,2.9217,2.9217,2.9291,2.9291,2.9292]}]]